[[{"header":{"parameterUnit":"m.s-1","parameterCategory":1,"la1":30.2991,"la2":30.254,"lo1":-89.0895,"lo2":-89.0444,"dy":0.0017,"dx":0.0017,"nx":28,"ny":28,"refTime":"2025-08-15T21:00:00:Z","depth":0,"parameterNumber":2,"parameterNumberName":"U-component_of_WINDS"},"data":[0,0,0,0,0,0,0,0,0,0,0,0,0,0,0,0,0,0,0,0,0,0,0,0,0,0,0,0,0,0,0,0,0,0,0,0,0,0,0,0,0,0,0,0,0,0,0,0,0,0,0,0,0,0,0,0,0,0,2.0407,2.0406,0,2.0393,2.0393,2.0392,2.0315,2.0313,2.0311,2.0309,2.0295,2.0297,2.0298,0,0,0,0,0,0,0,0,0,0,0,0,0,2.0367,2.0368,2.0407,2.0406,2.0406,2.0393,2.0393,2.0392,2.0315,2.0313,2.031,2.0308,2.0295,2.0296,2.0298,0,0,0,0,0,0,0,0,0,0,0,0,0,2.0372,2.0368,2.0407,2.0366,2.0362,2.0393,2.0392,2.0392,2.0315,2.0313,2.031,2.0307,2.0294,2.0296,2.0298,2.0367,0,0,2.0305,2.0306,0,0,0,0,0,0,0,0,2.0372,2.0373,2.0372,2.0369,2.0365,2.0352,2.0373,2.0384,2.0316,2.0333,2.0309,2.0306,2.0317,2.0317,2.032,2.0366,2.0366,2.0305,2.0306,2.0307,2.0308,0,0,0,0,0,0,0,2.0371,2.0373,2.0401,2.0372,2.0368,2.0349,2.0346,2.0375,2.0341,2.0331,2.0326,2.0325,2.0314,2.0318,2.0319,2.0366,2.0305,2.0307,2.0308,2.0309,2.0469,2.0472,0,0,0,0,0,0,2.0377,2.0374,2.0401,2.0401,2.0361,2.0352,2.0349,2.0359,2.034,2.0335,2.0328,2.0322,2.0316,2.0317,2.0319,2.0399,2.0307,2.0309,2.031,2.0466,2.047,2.0473,0,0,0,0,0,0,2.0376,2.038,2.0402,2.0386,2.0387,2.0355,2.0367,2.036,2.0365,2.0337,2.0331,2.0338,2.0314,2.0316,2.0356,2.0397,2.031,2.0312,2.0462,2.0467,2.0471,2.0559,0,0,0,0,0,0,2.0375,2.038,2.0406,2.0387,2.0388,2.044,2.037,2.0362,2.0368,2.036,2.0346,2.0341,2.0312,2.0353,2.0358,2.0398,2.0313,2.0459,2.0465,2.047,2.0553,2.0566,2.0578,0,0,0,0,0,2.0374,2.0431,2.0407,2.0411,2.0419,2.0442,2.0443,2.0409,2.0372,2.0398,2.038,2.0341,2.0392,2.0358,2.0363,2.0404,2.0456,2.0463,2.0469,2.0547,2.0564,2.0578,0,0,0,0,0,0,2.0455,2.0427,2.0401,2.0453,2.0451,2.0429,2.046,2.0427,2.0435,2.0427,2.0385,2.0382,2.0429,2.042,2.0383,2.0471,2.0417,2.0425,2.0475,2.049,2.0503,2.0504,2.0315,0,0,0,0,0,2.0479,2.0499,2.0474,2.0523,2.0523,2.0492,2.05,2.0475,2.047,2.0469,2.0454,2.0452,2.0467,2.0478,2.049,2.0551,2.0547,2.0582,2.0595,2.0605,2.0613,2.0646,2.0661,2.0495,2.0495,2.0495,0,0,2.0528,2.0516,2.0531,2.0539,2.0533,2.0556,2.0491,2.0518,2.0535,2.0473,2.051,2.05,2.0494,2.0545,2.0567,2.0539,2.0658,2.0614,2.0623,2.0625,2.0654,2.067,2.0684,2.05,2.0499,2.0498,0,0,2.063,2.0622,2.0663,2.0659,2.0652,2.0632,2.0642,2.0625,2.0616,2.0653,2.0607,2.0627,2.0654,2.0652,2.0655,2.0758,2.0722,2.0763,2.083,2.0862,2.0875,2.0887,2.0924,2.0938,2.0771,2.0771,2.0771,0,2.0693,2.0725,2.0687,2.0717,2.0722,2.0668,2.0709,2.0707,2.0705,2.071,2.0679,2.0713,2.0705,2.0756,2.0781,2.0785,2.0795,2.0765,2.0876,2.0887,2.0897,2.0933,2.0947,2.0776,2.0775,2.0775,2.0774,0,2.0802,2.0826,2.0859,2.0859,2.0868,2.0903,2.0871,2.0885,2.0859,2.0841,2.088,2.0869,2.0879,2.0889,2.0864,2.0937,2.092,2.0884,2.0829,2.0919,2.0952,2.0965,2.0783,2.0781,2.078,2.0779,0,0,2.0954,2.0934,2.0947,2.0947,2.0936,2.0954,2.0987,2.0997,2.101,2.101,2.1038,2.1063,2.1029,2.1032,2.1006,2.1035,2.1118,2.0994,2.0994,2.1019,2.12,2.1228,2.1244,2.1095,2.1097,2.1099,2.1201,0,2.1053,2.1109,2.1077,2.1137,2.1159,2.1108,2.1137,2.1134,2.1119,2.1136,2.1119,2.1138,2.1091,2.1093,2.1119,2.1103,2.1154,2.1095,2.1121,2.1122,2.1124,2.1261,2.1291,2.1387,2.1213,2.1215,2.1217,0,2.1175,2.1182,2.1245,2.1231,2.1239,2.1266,2.1273,2.1289,2.1285,2.1273,2.1277,2.1244,2.1277,2.1223,2.1267,2.1228,2.1236,2.123,2.1233,2.1235,2.1175,2.1267,2.1417,2.1432,2.1236,2.1235,2.1233,0,2.1281,2.1306,2.1347,2.1348,2.1333,2.1353,2.1348,2.1341,2.135,2.1356,2.1361,2.1372,2.1378,2.1386,2.1358,2.1321,2.1407,2.135,2.1398,2.1399,2.1418,2.1417,2.1572,2.1423,2.1423,2.1422,2.1422,0,2.1395,2.1436,2.1395,2.142,2.1465,2.1428,2.1473,2.1462,2.1457,2.1479,2.1436,2.1458,2.1418,2.1437,2.1415,2.1456,2.1458,2.1449,2.1443,2.1454,2.1455,2.1459,2.1452,2.1426,2.1425,2.1425,2.1424,0,2.1521,2.1495,2.1537,2.1519,2.1516,2.155,2.1535,2.1558,2.1541,2.157,2.1575,2.1548,2.1568,2.154,2.1556,2.1541,2.1598,2.1581,2.16,2.1595,2.1645,2.1641,2.1808,2.1828,2.1666,2.1667,2.1668,0,2.1596,2.1626,2.1612,2.1625,2.1622,2.1642,2.1651,2.1616,2.1627,2.1625,2.1649,2.1665,2.1676,2.1711,2.1693,2.1706,2.1689,2.1747,2.1691,2.1701,2.1691,2.169,2.1693,2.1759,2.176,2.1762,2.1763,0,2.1731,2.1717,2.1732,2.1742,2.1754,2.176,2.1764,2.1776,2.174,2.1754,2.1774,2.1783,2.1801,2.1818,2.1826,2.1821,2.1787,2.1781,2.1793,2.1804,2.1814,2.1811,2.1632,2.1778,2.1776,2.1775,2.1774,2.1774,2.1834,2.186,2.1854,2.1872,2.1871,2.1875,2.1897,2.1882,2.1898,2.191,2.1888,2.1914,2.191,2.1918,2.1917,2.1937,2.1912,2.1929,2.1933,2.1938,2.1946,2.1811,2.1938,2.1938,2.1937,2.1937,2.1937,0,2.1969,2.1963,2.198,2.1986,2.2001,2.1967,2.1969,2.1984,2.2007,2.2006,2.2018,2.2042,2.2059,2.2042,2.2056,2.2075,2.206,2.208,2.2078,2.2078,2.1967,2.1956,2.2092,2.2092,2.2092,2.2092,2.2092,2.2092,2.204,2.2082,2.2067,2.2108,2.2101,2.2127,2.2131,2.2135,2.2134,2.2163,2.2177,2.2166,2.2159,2.2172,2.2186,2.2181,2.2188,2.2214,2.2204,2.2101,2.2086,2.2071,2.206,2.2216,2.2216,2.2313,2.2314,2.2314]},{"header":{"parameterUnit":"m.s-1","parameterCategory":1,"la1":30.2991,"la2":30.254,"lo1":-89.0895,"lo2":-89.0444,"dy":0.0017,"dx":0.0017,"nx":28,"ny":28,"refTime":"2025-08-15T21:00:00:Z","depth":0,"parameterNumber":3,"parameterNumberName":"V-component_of_WINDS"},"data":[0,0,0,0,0,0,0,0,0,0,0,0,0,0,0,0,0,0,0,0,0,0,0,0,0,0,0,0,0,0,0,0,0,0,0,0,0,0,0,0,0,0,0,0,0,0,0,0,0,0,0,0,0,0,0,0,0,0,2.9208,2.9209,0,2.9317,2.9318,2.9319,2.9341,2.9341,2.934,2.9339,2.9451,2.9454,2.9458,0,0,0,0,0,0,0,0,0,0,0,0,0,2.9017,2.902,2.9208,2.9209,2.921,2.9316,2.9318,2.9319,2.9342,2.9341,2.934,2.9339,2.945,2.9454,2.9458,0,0,0,0,0,0,0,0,0,0,0,0,0,2.911,2.9021,2.9207,2.9234,2.9238,2.9316,2.9318,2.932,2.9342,2.9341,2.9339,2.9338,2.9448,2.9454,2.9459,2.9518,0,0,2.9476,2.9479,0,0,0,0,0,0,0,0,2.9105,2.9117,2.9229,2.9233,2.9237,2.9314,2.9292,2.9386,2.9342,2.9302,2.9339,2.9338,2.9406,2.9415,2.9438,2.9524,2.9528,2.9477,2.948,2.9483,2.9484,0,0,0,0,0,0,0,2.9098,2.9113,2.9251,2.9231,2.9235,2.924,2.9252,2.931,2.936,2.9306,2.9308,2.932,2.9408,2.9433,2.9441,2.953,2.9477,2.9482,2.9485,2.9487,2.9665,2.9666,0,0,0,0,0,0,2.9087,2.9107,2.9247,2.9254,2.9166,2.9245,2.9258,2.9291,2.9359,2.9369,2.9321,2.9321,2.9424,2.9435,2.9445,2.9517,2.9483,2.9488,2.9491,2.9664,2.9665,2.9667,0,0,0,0,0,0,2.9083,2.91,2.9243,2.9181,2.92,2.9249,2.9286,2.9293,2.9318,2.9371,2.938,2.9337,2.9423,2.9437,2.9499,2.9521,2.949,2.9495,2.9662,2.9664,2.9666,2.9662,0,0,0,0,0,0,2.9078,2.9098,2.9122,2.9181,2.9203,2.9296,2.9287,2.9296,2.9328,2.9328,2.9389,2.9397,2.9424,2.9491,2.9505,2.9528,2.95,2.966,2.9663,2.9665,2.966,2.9663,2.9666,0,0,0,0,0,2.9071,2.9117,2.9123,2.914,2.9234,2.9297,2.9309,2.9338,2.933,2.9353,2.9386,2.9396,2.9516,2.9497,2.9513,2.9538,2.9659,2.9662,2.9665,2.9659,2.9663,2.9666,0,0,0,0,0,0,2.9061,2.9126,2.9133,2.92,2.9243,2.9301,2.9332,2.9342,2.9389,2.9387,2.9421,2.9434,2.9494,2.9522,2.9499,2.9597,2.9587,2.9593,2.9577,2.9581,2.9584,2.9576,2.9504,0,0,0,0,0,2.9066,2.9112,2.9167,2.9221,2.9241,2.9283,2.9312,2.933,2.9375,2.9394,2.9432,2.9475,2.9522,2.9553,2.96,2.9664,2.9676,2.9689,2.9692,2.9694,2.9699,2.9732,2.9738,2.9677,2.9677,2.9677,0,0,2.9078,2.9119,2.9147,2.922,2.9255,2.93,2.9298,2.9348,2.9382,2.9401,2.9461,2.949,2.9541,2.9603,2.9632,2.9629,2.9718,2.9698,2.9699,2.9704,2.9736,2.9741,2.9746,2.9679,2.9679,2.9678,0,0,2.9123,2.916,2.9208,2.9242,2.9294,2.9321,2.9332,2.9388,2.9407,2.9468,2.9482,2.9523,2.9605,2.9639,2.9667,2.972,2.9729,2.9735,2.975,2.9782,2.9786,2.9791,2.9808,2.9814,2.974,2.974,2.974,0,2.9132,2.9202,2.9231,2.9279,2.9309,2.9327,2.9375,2.9407,2.9472,2.9492,2.9487,2.9587,2.9623,2.9691,2.9704,2.9727,2.9739,2.9728,2.9783,2.9788,2.9793,2.9809,2.9816,2.974,2.974,2.974,2.974,0,2.9209,2.9257,2.9289,2.935,2.9384,2.9431,2.9466,2.9496,2.951,2.9537,2.9596,2.9639,2.9693,2.9711,2.9726,2.9781,2.9776,2.9777,2.9767,2.9798,2.9814,2.9821,2.974,2.974,2.974,2.974,0,0,2.9254,2.9327,2.9338,2.9364,2.9421,2.9459,2.9505,2.9557,2.9582,2.9625,2.9664,2.9731,2.973,2.9762,2.9781,2.9808,2.9844,2.9805,2.9807,2.981,2.9904,2.9903,2.991,2.985,2.9852,2.9853,2.9899,0,2.9305,2.9389,2.9414,2.9485,2.9528,2.9544,2.9584,2.9622,2.9647,2.9687,2.9714,2.976,2.9757,2.9776,2.9804,2.9834,2.9864,2.9831,2.9886,2.9887,2.9872,2.9919,2.9919,2.9961,2.9906,2.9907,2.9908,0,2.9377,2.9419,2.9493,2.9542,2.9561,2.9597,2.9644,2.9682,2.9725,2.9741,2.9774,2.979,2.9837,2.9824,2.9888,2.9865,2.9888,2.9906,2.9908,2.9915,2.9899,2.9925,2.9975,2.9981,2.9918,2.9918,2.9917,0,2.9399,2.9475,2.9529,2.9551,2.9609,2.9633,2.9659,2.97,2.9728,2.977,2.9788,2.9834,2.986,2.9894,2.9921,2.9909,2.9982,2.9972,2.9995,2.9994,3.0011,3.0009,3.0064,3.0026,3.0026,3.0026,3.0026,0,2.9454,2.9498,2.9539,2.9572,2.9621,2.9649,2.9696,2.9722,2.9758,2.9795,2.9811,2.9845,2.9879,2.9916,2.9937,2.9986,2.9998,3.0011,3.0016,3.0009,3.0007,3.0025,3.0022,3.0028,3.0028,3.0027,3.0027,0,2.9488,2.9518,2.9577,2.9625,2.9639,2.9672,2.9714,2.9745,2.9769,2.9815,2.9828,2.9865,2.991,2.994,2.9998,3.0012,3.0064,3.0069,3.0049,3.0052,3.0073,3.007,3.0141,3.015,3.0107,3.0107,3.0107,0,2.9521,2.9555,2.9606,2.9632,2.9657,2.9698,2.9726,2.9753,2.9782,2.983,2.9855,2.9901,2.9939,3.001,3.0042,3.0085,3.0091,3.0112,3.0097,3.0088,3.0089,3.0086,3.0089,3.0115,3.0115,3.0115,3.0116,0,2.9575,2.9587,2.9627,2.9671,2.9704,2.974,2.9776,2.9796,2.9829,2.9859,2.9905,2.9934,2.9992,3.0036,3.0081,3.0106,3.0116,3.0119,3.0127,3.012,3.0107,3.0113,3.0055,3.0118,3.0118,3.0118,3.0118,3.0117,2.9609,2.9638,2.9678,2.9721,2.9751,2.9783,2.9814,2.984,2.9879,2.9928,2.9941,2.9987,3.0026,3.0087,3.0112,3.0148,3.0146,3.0157,3.016,3.0162,3.0161,3.0101,3.0157,3.0157,3.0157,3.0157,3.0157,0,2.9662,2.9688,2.9727,2.9776,2.9809,2.9813,2.9853,2.988,2.9921,2.9955,2.9991,3.0042,3.0084,3.0118,3.016,3.0182,3.0188,3.0193,3.0191,3.0196,3.0162,3.0151,3.0188,3.0188,3.0188,3.0188,3.0188,3.0188,2.9694,2.9744,2.9759,2.9822,2.9848,2.9893,2.9915,2.9944,2.9971,3.0026,3.0061,3.0082,3.0116,3.0161,3.0198,3.0207,3.0221,3.0225,3.0235,3.0202,3.0199,3.0196,3.0185,3.0229,3.0229,3.0266,3.0266,3.0266]}]]